Voltar ao catálogo

COSMOS 2329

AtivoMilitarPO
NORAD 23791·PAYLOAD·🇷🇺 Russia

Lançado Feb 19, 1996 de Plesetsk Cosmodrome

Loading…

Próximas Passagens (próximas 24 horas)

TLE

AtualizadoSource: Space-Track

Época: Sep 14, 2026, 01:35 UTC

1 23791U 96009E   26257.06617115  .00000009  00000-0 -90571-5 0  9992
2 23791  82.5667 269.1425 0007998 218.5360 163.8792 12.61706588407578

Acompanhe COSMOS 2329 em tempo real com AllMySat

Download on the App Store